THORAD DELTA 1 DEB

Satellite information

Favourite Embed

Satellite Type and Status

DEBRISIN ORBIT

Key statistics

Satellite THORAD DELTA 1 DEB at a glance.

Uptime

18663

Days in orbit

Revolutions

≈ 12.3

Per day

Orbit

SSO

Sun Synchronous Orbit

Inclination

101.4

Latest

Satellite identification and parameters

Extended collection of information and parameters for THORAD DELTA 1 DEB.

Object identification

Identified? True

Debris? True

Object name: THORAD DELTA 1 DEB

International designator: 1974-089DJ

Object number (NORAD): 8595

Object ID (CCSDS): 8595

Country: UNITED STATES OF AMERICA (US)

Current information (Y/N): Y

RCS size: SMALL

Orbital parameters

Period: 117.507 minutes

Inclination: 101.435 deg

SMA: 7946.978 km

Apoapsis: 1686.735 km

Periapsis: 1450.95 km

RAAN: 204.9529 deg

Eccentricy: 0.01483488

Argument of periapsis: 68.6749 deg

Mean anomaly: 353.6694 deg

Mean motion: 12.25461772 rev/day

Mean motion (dot): 0.00000017 rev/day2

B* drag term: 0.0004916481 1/REarth

Two-line elements (TLE)

Creation date: Dec. 18, 2025, 8:02 p.m.

Reference frame: TEME

Reference center: EARTH

Epoch: Dec. 18, 2025, 12:04 p.m. UTC

TLE line 0: 0 THORAD DELTA 1 DEB

TLE line 1: 1 08595U 74089DJ 25352.50284756 .00000017 00000-0 49165-3 0 9995

TLE line 2: 2 08595 101.4350 204.9529 0148349 68.6749 353.6694 12.25461772285281

Live tracking on map

Real-time ground track for satellite THORAD DELTA 1 DEB.

In-orbit conjunctions

A list of the most updated potential collisions computed for object THORAD DELTA 1 DEB.

Target Orbit TCA Probability of collision Miss distance Type
COSMOS 1015 LEO 2025-01-15 02:10:22 0.0001136161 66.0 (m) PAYLOAD

Associated space launch

Meteorological satellite using radiometric imaging

THORAD DELTA 1 DEB was lifted into orbit during the mission ‘Delta 2310 | NOAA 4’, on board a Delta 2310 space rocket.

The launch took place on Nov. 15, 1974, 5:11 p.m. from Space Launch Complex 2W.

For more information about the launch, click the button.

Launch to space Delta 2310 | NOAA 4
Delta 2310 | NOAA 4

Agency: N/A

Status: Launch Successful

Launch date: Nov. 15, 1974, 5:11 p.m. UTC

Rocket: Delta 2310

Launch pad: Space Launch Complex 2W

Location: Vandenberg SFB, CA, USA

...

Latest news about this satellite

There are no fresh news available about this satellite. Check back as we update our databases every day.


Newsletter sign-up

Weekly statistics, charts and insights to help you stay on top of the space industry.